| ตารางข้อมูล | 4529T1 | 4529T2 | 4529T3 | 4529T4 | TH20402 | TH452-9A | TH452-9D | TH814 | ค้นข้อมูล1 | ค้นข้อมูล2 | ค่าสูงสุด-ต่ำสุด |  

Select Sensor -->| 20402 | 452-9A | 452-9D | 4529T1 | 4529T2 | 4529T3 | 4529T4 | 814 | หน้าจอย่อ | 4529 |
Data of room  4529T4

IDRoomDate  Temp  Humidity
 184197  4529T4  2021-03-03 08:59:06  28.3  0.0 
 184192  4529T4  2021-03-03 08:38:59  28.3  0.0 
 184187  4529T4  2021-03-03 08:18:51  28.5  0.0 
 184182  4529T4  2021-03-03 07:58:44  28.3  0.0 
 184177  4529T4  2021-03-03 07:38:37  28.4  0.0 
 184172  4529T4  2021-03-03 07:18:29  28.8  0.0 
 184167  4529T4  2021-03-03 06:58:22  28.5  0.0 
 184162  4529T4  2021-03-03 06:38:15  28.5  0.0 
 184157  4529T4  2021-03-03 06:18:08  28.5  0.0 
 184152  4529T4  2021-03-03 05:58:00  28.5  0.0 
 184147  4529T4  2021-03-03 05:37:53  28.5  0.0 
 184142  4529T4  2021-03-03 05:17:46  28.8  0.0 
 184137  4529T4  2021-03-03 04:57:39  28.7  0.0 
 184132  4529T4  2021-03-03 04:37:31  28.8  0.0 
 184127  4529T4  2021-03-03 04:17:24  28.8  0.0 
 184122  4529T4  2021-03-03 03:57:17  28.8  0.0 
 184117  4529T4  2021-03-03 03:37:09  28.9  0.0 
 184112  4529T4  2021-03-03 03:17:02  28.9  0.0 
 184107  4529T4  2021-03-03 02:56:55  29.0  0.0 
 184102  4529T4  2021-03-03 02:36:48  28.9  0.0 
 184097  4529T4  2021-03-03 02:16:40  29.0  0.0 
 184092  4529T4  2021-03-03 01:56:33  29.0  0.0 
 184087  4529T4  2021-03-03 01:36:26  29.1  0.0 
 184082  4529T4  2021-03-03 01:16:18  29.6  0.0 
 184077  4529T4  2021-03-03 00:56:11  29.2  0.0 
 184072  4529T4  2021-03-03 00:36:04  29.3  0.0 
 184067  4529T4  2021-03-03 00:15:56  29.4  0.0 
 184062  4529T4  2021-03-02 23:55:49  30.1  0.0 
 184057  4529T4  2021-03-02 23:35:42  30.0  0.0 
 184052  4529T4  2021-03-02 23:15:35  29.3  0.0 
 184047  4529T4  2021-03-02 22:55:27  29.4  0.0 
 184042  4529T4  2021-03-02 22:35:20  29.4  0.0 
 184037  4529T4  2021-03-02 22:15:13  29.5  0.0 
 184032  4529T4  2021-03-02 21:55:06  29.5  0.0 
 184027  4529T4  2021-03-02 21:34:58  29.5  0.0 
 184022  4529T4  2021-03-02 21:14:51  29.5  0.0 
 184017  4529T4  2021-03-02 20:54:44  29.5  0.0 
 184012  4529T4  2021-03-02 20:34:36  29.6  0.0 
 184007  4529T4  2021-03-02 20:14:29  29.5  0.0 
 184002  4529T4  2021-03-02 19:54:22  29.6  0.0 
 183997  4529T4  2021-03-02 19:34:15  29.6  0.0 
 183992  4529T4  2021-03-02 19:14:07  29.8  0.0 
 183987  4529T4  2021-03-02 18:54:00  29.5  0.0 
 183982  4529T4  2021-03-02 18:33:53  29.5  0.0 
 183977  4529T4  2021-03-02 18:13:45  29.5  0.0 
 183971  4529T4  2021-03-02 17:53:38  29.5  0.0 
 183966  4529T4  2021-03-02 17:33:31  29.5  0.0 
 183961  4529T4  2021-03-02 17:13:24  29.5  0.0 
 183956  4529T4  2021-03-02 16:53:16  29.5  0.0 
 183951  4529T4  2021-03-02 16:33:09  29.3  0.0 
 183946  4529T4  2021-03-02 16:13:02  29.3  0.0 
 183941  4529T4  2021-03-02 15:52:54  29.2  0.0 
 183936  4529T4  2021-03-02 15:32:47  29.1  0.0 
 183931  4529T4  2021-03-02 15:12:40  29.1  0.0 
 183926  4529T4  2021-03-02 14:52:33  29.1  0.0 
 183921  4529T4  2021-03-02 14:32:25  29.0  0.0 
 183916  4529T4  2021-03-02 14:12:18  29.0  0.0 
 183911  4529T4  2021-03-02 13:52:11  29.1  0.0 
 183906  4529T4  2021-03-02 13:32:03  29.0  0.0 
 183901  4529T4  2021-03-02 13:11:56  28.9  0.0 
 183896  4529T4  2021-03-02 12:51:49  28.7  0.0 
 183891  4529T4  2021-03-02 12:31:41  28.7  0.0 
 183886  4529T4  2021-03-02 12:11:34  28.6  0.0 
 183881  4529T4  2021-03-02 11:51:25  28.5  0.0 
 183876  4529T4  2021-03-02 11:31:17  28.5  0.0 
 183871  4529T4  2021-03-02 11:11:09  28.5  0.0 
 183866  4529T4  2021-03-02 10:51:02  28.3  0.0 
 183861  4529T4  2021-03-02 10:30:54  28.3  0.0 
 183856  4529T4  2021-03-02 10:10:47  28.3  0.0 
 183851  4529T4  2021-03-02 09:50:40  28.2  0.0 
 183846  4529T4  2021-03-02 09:30:33  28.2  0.0 
 183841  4529T4  2021-03-02 09:10:25  28.1  0.0 

Data every 20 minute.


Data of room  4529T4


Data every 20 minute.

  Show Graph